Location: Terschelling
(53.4100°N, 5.3500°E)
Time: 11:56:43
(UTC+01:00)

CAS-4A - Pass Details

Date: 06 December 2023
Orbit: 485 x 502 km, 43.0° (Epoch: 25 February)

Event Time Altitude Azimuth Distance (km) Brightness Sun altitude
Rises 18:48:30 0° 254° (WSW) 2,577 ? -20.7°
Reaches altitude 10° 18:51:52 10° 223° (SW) 1,684 ? -21.2°
Maximum altitude 18:53:25 12° 199° (SSW) 1,549 ? -21.4°
Drops below altitude 10° 18:54:58 10° 175° (S) 1,675 ? -21.6°
Enters shadow 18:55:31 - 168° (SSE) 1,775 ? -21.7°
